Time,TemperatureF,DewpointF,PressureIn,WindDirection,WindDirectionDegrees,WindSpeedMPH,WindSpeedGustMPH,Humidity,HourlyPrecipIn,Conditions,Clouds,dailyrainin,SoftwareType,DateUTC
2013-12-11 00:06:00,77.0,71.8,30.04,East,90,1.6,-999.0,84,-99.99,,,0.27,Acu-Link.com,2013-12-11 04:06:00,
2013-12-11 00:22:00,75.9,72.1,30.05,ESE,112,3.1,-999.0,88,-99.99,,,0.36,Acu-Link.com,2013-12-11 04:22:00,
2013-12-11 00:37:00,75.6,72.1,30.04,South,180,2.7,-999.0,89,-99.99,,,0.36,Acu-Link.com,2013-12-11 04:37:00,
2013-12-11 00:52:00,75.6,72.4,30.03,SSE,157,1.6,-999.0,90,-99.99,,,0.37,Acu-Link.com,2013-12-11 04:52:00,
2013-12-11 01:07:00,75.6,72.4,30.03,South,180,2.2,-999.0,90,-99.99,,,0.00,Acu-Link.com,2013-12-11 05:07:00,
2013-12-11 01:22:00,75.7,72.9,30.03,ESE,112,2.7,-999.0,91,-99.99,,,0.00,Acu-Link.com,2013-12-11 05:22:00,
2013-12-11 01:38:00,75.7,72.9,30.02,SE,135,2.7,-999.0,91,-99.99,,,0.00,Acu-Link.com,2013-12-11 05:38:00,
2013-12-11 01:53:00,75.6,72.7,30.02,SSE,157,2.2,-999.0,91,-99.99,,,0.00,Acu-Link.com,2013-12-11 05:53:00,
2013-12-11 02:08:00,75.4,72.6,30.01,SSE,157,2.2,-999.0,91,-99.99,,,0.00,Acu-Link.com,2013-12-11 06:08:00,
2013-12-11 02:23:00,75.4,72.6,30.01,SE,135,2.7,-999.0,91,-99.99,,,0.00,Acu-Link.com,2013-12-11 06:23:00,
2013-12-11 02:38:00,75.4,72.6,30.00,NE,45,2.7,-999.0,91,-99.99,,,0.00,Acu-Link.com,2013-12-11 06:38:00,
2013-12-11 02:54:00,75.6,72.4,30.00,ESE,112,1.6,-999.0,90,-99.99,,,0.00,Acu-Link.com,2013-12-11 06:54:00,
2013-12-11 03:09:00,75.6,72.4,30.00,SSE,157,1.6,-999.0,90,-99.99,,,0.00,Acu-Link.com,2013-12-11 07:09:00,
2013-12-11 03:24:00,75.9,72.4,30.00,SSW,202,3.1,-999.0,89,-99.99,,,0.00,Acu-Link.com,2013-12-11 07:24:00,
2013-12-11 03:39:00,76.1,72.6,29.99,SSE,157,2.7,-999.0,89,-99.99,,,0.00,Acu-Link.com,2013-12-11 07:39:00,
2013-12-11 03:54:00,75.9,72.4,30.00,SSW,202,1.6,-999.0,89,-99.99,,,0.01,Acu-Link.com,2013-12-11 07:54:00,
2013-12-11 04:09:00,75.6,72.1,29.99,South,180,0.0,-999.0,89,-99.99,,,0.01,Acu-Link.com,2013-12-11 08:09:00,
2013-12-11 04:24:00,75.4,72.2,29.99,SSW,202,0.0,-999.0,90,-99.99,,,0.01,Acu-Link.com,2013-12-11 08:24:00,
2013-12-11 04:40:00,75.4,72.2,30.00,SW,225,0.0,-999.0,90,-99.99,,,0.01,Acu-Link.com,2013-12-11 08:40:00,
2013-12-11 04:55:00,75.4,72.2,30.00,SSW,202,1.6,-999.0,90,-99.99,,,0.01,Acu-Link.com,2013-12-11 08:55:00,
2013-12-11 05:10:00,75.4,72.2,30.00,SSW,202,0.0,-999.0,90,-99.99,,,0.01,Acu-Link.com,2013-12-11 09:10:00,
2013-12-11 05:25:00,75.4,72.6,30.00,WSW,247,1.6,-999.0,91,-99.99,,,0.01,Acu-Link.com,2013-12-11 09:25:00,
2013-12-11 05:40:00,75.4,72.6,30.00,WNW,292,0.0,-999.0,91,-99.99,,,0.01,Acu-Link.com,2013-12-11 09:40:00,
2013-12-11 05:56:00,75.6,72.7,30.01,South,180,2.7,-999.0,91,-99.99,,,0.01,Acu-Link.com,2013-12-11 09:56:00,
2013-12-11 06:11:00,75.4,72.6,30.01,South,180,2.2,-999.0,91,-99.99,,,0.05,Acu-Link.com,2013-12-11 10:11:00,
2013-12-11 18:29:00,79.3,72.2,29.99,SE,135,7.4,-999.0,79,-99.99,,,0.05,Acu-Link.com,2013-12-11 22:29:00,
2013-12-11 18:44:00,79.2,72.1,29.99,ESE,112,5.8,-999.0,79,-99.99,,,0.05,Acu-Link.com,2013-12-11 22:44:00,
2013-12-11 18:59:00,79.2,72.1,29.99,ESE,112,4.3,-999.0,79,-99.99,,,0.05,Acu-Link.com,2013-12-11 22:59:00,
2013-12-11 19:15:00,79.0,71.9,30.00,ESE,112,4.3,-999.0,79,-99.99,,,0.05,Acu-Link.com,2013-12-11 23:15:00,
2013-12-11 19:30:00,79.0,71.9,30.01,ESE,112,6.7,-999.0,79,-99.99,,,0.05,Acu-Link.com,2013-12-11 23:30:00,
2013-12-11 19:45:00,79.0,71.9,30.01,SE,135,3.1,-999.0,79,-99.99,,,0.05,Acu-Link.com,2013-12-11 23:45:00,
2013-12-11 20:00:00,79.0,71.9,30.01,ESE,112,6.3,-999.0,79,-99.99,,,0.05,Acu-Link.com,2013-12-12 00:00:00,
2013-12-11 20:16:00,79.0,71.9,30.02,East,90,6.3,-999.0,79,-99.99,,,0.05,Acu-Link.com,2013-12-12 00:16:00,
2013-12-11 20:31:00,79.0,71.9,30.02,East,90,4.7,-999.0,79,-99.99,,,0.05,Acu-Link.com,2013-12-12 00:31:00,
2013-12-11 20:46:00,79.2,71.7,30.02,East,90,6.7,-999.0,78,-99.99,,,0.05,Acu-Link.com,2013-12-12 00:46:00,
2013-12-11 21:01:00,79.2,71.3,30.03,ESE,112,6.7,-999.0,77,-99.99,,,0.05,Acu-Link.com,2013-12-12 01:01:00,
2013-12-11 21:16:00,79.3,71.1,30.03,ESE,112,6.3,-999.0,76,-99.99,,,0.05,Acu-Link.com,2013-12-12 01:16:00,
2013-12-11 21:32:00,79.3,71.1,30.04,SSE,157,8.9,-999.0,76,-99.99,,,0.05,Acu-Link.com,2013-12-12 01:32:00,
2013-12-11 21:47:00,79.3,71.1,30.03,ESE,112,4.3,-999.0,76,-99.99,,,0.05,Acu-Link.com,2013-12-12 01:47:00,
2013-12-11 22:02:00,79.3,71.1,30.03,ENE,67,9.4,-999.0,76,-99.99,,,0.05,Acu-Link.com,2013-12-12 02:02:00,
2013-12-11 22:17:00,79.3,71.5,30.04,ESE,112,9.4,-999.0,77,-99.99,,,0.05,Acu-Link.com,2013-12-12 02:17:00,
2013-12-11 22:32:00,79.2,71.3,30.04,ESE,112,5.1,-999.0,77,-99.99,,,0.05,Acu-Link.com,2013-12-12 02:32:00,
2013-12-11 22:48:00,79.2,70.9,30.04,ESE,112,6.7,-999.0,76,-99.99,,,0.05,Acu-Link.com,2013-12-12 02:48:00,
2013-12-11 23:03:00,79.2,70.9,30.04,ESE,112,4.7,-999.0,76,-99.99,,,0.05,Acu-Link.com,2013-12-12 03:03:00,
2013-12-11 23:18:00,79.0,71.1,30.03,ESE,112,4.7,-999.0,77,-99.99,,,0.05,Acu-Link.com,2013-12-12 03:18:00,
2013-12-11 23:33:00,78.8,71.3,30.03,ESE,112,3.8,-999.0,78,-99.99,,,0.05,Acu-Link.com,2013-12-12 03:33:00,
2013-12-11 23:48:00,78.6,71.5,30.03,East,90,5.1,-999.0,79,-99.99,,,0.05,Acu-Link.com,2013-12-12 03:48:00,